Volver al catálogo

STARLINK-37843

ActivoComunicacionesSSO
NORAD 69501·PAYLOAD·🇺🇸 United States

Lanzado Jun 11, 2026 desde Vandenberg Space Force Base

Loading…

Próximos Pases (próximas 24 horas)

TLE

ActualizadoSource: CelesTrak SupGP

Época: Sep 15, 2026, 03:19 UTC

1 69501C 26131Z   26258.13868056 -.00050665  00000+0 -15728-2 0  2580
2 69501  97.2830 279.1533 0001282  93.3376 151.7852 15.33464068    16

Sigue STARLINK-37843 en tiempo real con AllMySat

Download on the App Store